GSAT-8 (GAGAN/PRN 127)

Last updated on Wed Sep 17 2025 00:03:27 GMT+0000 (Coordinated Universal Time)

1 37605U 11022A 25259.59465206 .00000065 00000+0 00000+0 0 9996 2 37605 1.4191 85.2848 0006290 153.0371 26.6357 1.00272315 50477
UTC large
Height (km)
Speed (km/s)
/
Latitude / Longitude
Inclination (degrees)
Orbital Period (minutes)
Azimuth
Elevation
Range (km)
Doppler Factor

Next 0 passes for location: London (51.5072 / 0.1276)

Sorry there are no passes over London.